SCP
1 1 0 0 0 0 0 0 0 0 0 0 0 1 1 1 1 0 0 0 0 0 0 0 1 0 0 0 0 0 0 0 0 0 0 0 0 0 0 0 0 0 0
1 1 0 0 0 0 0 0 0 0 0 0 0 1 1 1 2 0 0 0 0 0 0 0 0 0 0 0 0 0 0 0 0 0 0 0 0 0 0 -0 0 0 0
1 1 0 0 0 0 0 0 0 0 0 0 0 0 0 0 1 1 0 0 0 0 0 0 0 0 0 0 0 0 0 0 0 0 0 0 0 0 0 0 0 0 0
1 1 1 0 0 0 0 0 0 0 0 0 0 0 0 0 0 0 0 0 0 0 0 0 0 0 0 0 0 0 0 0 0 0 0 0 0 0 0 0 0 0 0
0 0 0 0 0 0 0 0 0 0 0 0 0 0 0 0 0 -0 0 0 0 0 0 0 0 0 0 0 0 0 0 0 0 0 0 0 0 0 0 0 0 0 0
0 0 0 0 0 0 0 0 0 0 0 0 0 -0 0 0 0 0 0 0 0 0 0 0 0 0 0 0 0 0 0 0 0 0 0 0 0 0 0 0 0 0 0
0 0 0 0 0 0 0 0 0 0 0 0 0 0 0 0 0 0 0 0 0 0 0 0 0 0 0 0 0 0 0 0 0 0 0 0 0 0 0 0 0 0 0
0 0 0 0 0 0 0 0 0 0 0 0 0 0 0 0 0 0 0 0 0 0 0 0 0 0 0 0 0 0 0 0 0 0 0 0 0 0 0 0 0 0 0
0 0 0 0 0 0 0 0 0 0 0 0 0 0 0 0 0 0 0 0 0 0 0 0 0 0 0 0 0 0 0 0 0 0 0 0 0 0 0 0 0 0 0
1 1 1 0 0 0 0 0 0 0 0 0 0 -0 0 0 0 0 0 0 0 0 0 0 0 0 0 0 0 0 0 0 0 0 0 0 0 0 0 0 0 0 0
2 1 0 0 0 0 0 0 0 0 0 0 0 0 0 0 0 0 0 0 0 0 0 0 0 0 0 0 0 0 0 0 0 0 0 0 0 0 0 0 0 0 0
1 0 0 0 0 0 0 0 0 0 0 0 0 0 0 0 0 0 0 0 0 0 0 0 0 0 0 0 0 0 0 0 0 0 0 0 0 0 0 0 0 0 0
0 0 0 0 0 0 0 0 0 0 0 0 0 0 0 0 0 0 0 0 0 0 0 0 0 0 0 0 0 0 0 0 0 0 0 0 0 0 0 0 0 0 0
0 0 0 0 0 0 0 0 0 0 0 0 0 0 0 0 0 0 0 0 0 0 0 0 0 0 0 0 0 0 0 0 0 0 0 0 0 0 0 0 0 0 0
0 0 0 0 0 0 0 0 0 0 0 0 0 0 0 0 0 0 0 0 0 0 0 0 0 0 0 0 0 0 0 0 0 0 0 0 0 0 0 0 0 0 0
0 0 0 0 0 0 0 0 0 0 0 0 0 0 0 0 0 0 0 0 0 0 0 0 0 0 0 0 0 0 0 0 0 0 0 0 0 0 0 0 0 0 0
0 0 0 0 0 0 0 0 0 0 0 0 0 0 0 0 0 0 0 0 0 0 0 0 0 0 0 0 0 0 0 0 0 0 0 0 0 0 0 0 0 0 0
0 0 0 0 0 0 0 0 0 0 0 0 0 0 0 0 0 0 0 0 0 0 0 0 0 0 0 0 0 0 0 0 0 0 0 0 0 0 0 0 0 0 0
0 0 0 0 0 0 0 0 0 0 0 0 0 0 0 0 0 0 0 0 0 0 0 0 0 0 0 0 0 0 0 0 0 0 0 0 0 0 0 0 0 0 0
0 0 0 0 0 0 0 0 0 0 0 0 0 0 0 0 0 0 0 0 0 0 0 0 0 0 0 0 0 0 0 0 0 0 0 0 0 0 0 0 0 0 0
0 0 0 0 0 0 0 0 0 0 -0 0 0 0 0 0 0 0 0 0 0 0 0 0 0 0 0 0 0 0 0 0 0 0 0 0 0 0 0 0 0 0 0
0 0 0 0 0 0 0 0 0 -0 -0 0 0 0 0 0 0 0 0 0 0 0 0 0 0 0 0 0 0 0 0 0 0 0 0 0 0 0 0 0 0 0 0
0 0 0 0 0 0 0 0 -0 -0 0 0 0 0 0 0 0 0 0 0 0 0 0 0 0 0 0 0 0 0 0 0 0 0 0 0 0 0 0 0 0 0 0
0 0 0 0 0 0 0 0 -0 0 0 0 0 0 0 0 0 0 0 0 0 0 0 0 0 0 0 0 0 0 0 0 0 0 0 0 0 0 0 0 0 0 0
0 0 0 0 0 0 0 0 0 0 0 0 0 0 0 0 0 0 0 0 0 0 0 0 0 0 0 0 0 0 0 0 0 0 0 0 0 0 0 0 0 0 0
0 0 0 0 0 0 0 0 0 0 0 0 0 0 0 0 0 0 0 0 0 0 0 0 0 0 0 0 0 0 0 0 0 0 0 -0 -0 0 0 0 0 0 0
Wind_Speed_500mb
68 69 72 66 60 58 60 60 55 53 51 51 49 47 44 37 24 18 25 26 22 21 26 21 22 26 30 31 34 33 38 50 47 52 51 47 41 34 30 43 54 50 48
68 70 71 66 64 62 57 55 52 50 51 51 45 33 32 33 32 25 30 40 30 26 19 20 22 20 18 26 38 33 41 42 37 38 42 35 53 35 65 48 58 51 60
78 73 68 61 57 53 55 57 54 53 46 47 44 32 36 38 26 23 27 37 23 21 14 26 29 31 25 25 27 29 31 33 33 33 26 21 19 62 43 58 50 69 60
75 74 63 58 51 50 50 52 48 44 35 33 36 50 48 18 5 21 32 47 33 25 17 18 17 16 17 18 20 28 29 29 30 26 24 23 31 29 41 32 61 62 71
83 73 63 58 51 44 44 42 43 32 26 22 19 25 26 28 13 18 37 44 18 4 7 12 17 21 24 25 23 22 24 25 29 34 39 39 38 33 49 53 77 75 61
84 73 67 62 54 41 42 35 30 24 27 13 16 18 29 24 32 51 33 22 13 13 16 17 19 22 21 19 19 22 26 29 32 32 35 38 38 42 46 58 71 71 72
87 79 68 61 45 46 36 38 44 24 17 23 23 30 29 37 34 26 15 9 10 10 9 10 9 12 16 20 24 28 30 31 31 31 30 29 29 32 36 44 59 65 73
86 78 71 57 55 55 41 39 37 30 24 27 34 33 34 32 27 19 16 11 7 4 8 9 11 17 23 28 29 31 29 28 26 24 23 27 31 34 40 46 55 66 41
73 72 67 59 62 57 50 43 39 38 36 35 35 36 32 27 26 20 15 12 12 12 12 12 17 22 25 27 27 27 25 24 22 26 31 32 33 35 37 39 45 50 54
67 70 68 66 63 57 56 49 45 45 43 35 32 31 26 20 13 11 10 11 13 11 14 14 21 25 25 24 23 23 24 24 30 31 31 30 30 34 38 42 44 44 46
67 71 76 72 69 67 61 58 53 47 41 35 30 25 21 15 13 10 12 11 11 11 12 17 21 18 22 21 23 24 24 26 27 28 29 29 34 37 39 41 41 42 49
77 85 88 80 75 73 66 60 53 43 35 28 21 14 12 10 7 7 9 9 8 7 11 17 15 19 21 22 22 22 22 23 26 27 28 32 35 35 43 49 50 50 55
78 86 90 89 84 76 69 61 53 42 32 23 20 19 14 8 4 6 8 9 6 10 14 17 20 22 24 25 23 21 21 23 26 29 31 35 39 43 47 50 53 53 57
86 89 94 91 87 78 69 56 50 38 32 26 19 15 11 8 10 13 14 14 16 17 20 20 23 23 25 27 28 28 28 26 28 30 32 37 38 43 49 52 50 54 58
75 84 93 93 86 77 65 55 47 40 33 25 20 16 12 12 13 15 16 16 15 16 18 19 21 22 20 24 26 27 27 28 28 29 33 36 37 36 41 47 49 53 58
77 86 93 88 81 75 67 55 47 37 28 22 19 17 15 14 14 16 16 14 15 16 16 17 19 17 19 24 24 24 26 24 27 31 30 34 38 40 38 43 48 55 58
94 98 96 89 79 71 64 56 46 36 26 21 18 16 13 13 15 16 14 12 12 12 13 16 19 20 22 23 22 23 23 25 28 31 36 40 44 48 48 42 43 53 55
100 103 95 86 78 72 63 53 42 34 27 22 18 16 14 15 16 14 11 13 17 14 14 16 18 21 21 21 23 22 23 27 31 36 41 46 49 53 53 51 49 52 57
101 102 92 86 77 67 57 49 43 35 29 24 21 19 17 17 17 18 20 17 13 14 16 16 17 20 23 23 22 21 23 27 33 41 47 51 55 57 53 50 51 52 54
95 94 88 79 69 61 52 47 43 37 31 28 24 23 22 20 22 19 17 16 13 13 14 13 15 19 20 21 20 20 22 26 34 39 45 51 55 55 51 45 47 49 52
89 85 77 70 61 55 49 47 43 36 33 29 26 27 25 22 20 18 15 10 6 6 5 8 14 16 17 18 19 20 24 30 37 45 50 55 58 55 46 38 39 43 44
83 76 73 65 57 49 44 45 40 36 33 29 27 26 24 21 18 12 11 8 8 8 12 11 11 14 15 18 20 23 27 34 42 49 53 54 53 49 42 34 31 32 37
80 74 69 63 52 43 36 40 37 34 31 29 26 24 22 20 17 13 13 10 10 11 12 11 10 10 12 15 17 20 26 35 43 49 52 50 45 41 34 30 29 31 35
79 71 63 57 52 41 35 28 32 29 27 28 26 22 19 19 14 11 12 11 8 7 7 7 6 6 8 10 14 20 28 37 41 46 47 45 42 38 35 30 30 31 34
73 63 57 53 50 43 36 29 28 24 23 22 20 19 18 14 10 9 11 11 8 3 4 3 5 7 5 10 17 24 32 41 43 41 40 41 41 39 37 37 35 33 32
68 59 52 49 45 37 31 29 26 20 17 17 16 16 15 14 9 9 12 13 13 13 12 10 5 7 10 15 21 28 32 37 40 38 41 44 47 49 50 48 45 44 42
Wind_Direction_500mb
183 191 200 202 198 200 199 202 206 207 207 201 202 204 205 192 210 247 247 233 246 272 254 243 252 268 284 304 305 298 298 312 309 309 304 307 311 316 307 322 322 323 325
169 178 191 196 203 203 199 205 205 208 209 210 210 218 210 209 196 211 258 261 257 234 261 268 263 269 270 283 282 293 300 310 325 334 337 331 325 314 321 330 326 326 325
167 174 182 190 195 204 209 209 209 215 216 219 219 241 246 246 233 242 312 341 316 302 290 286 266 269 263 276 300 307 317 327 335 332 331 326 311 315 322 322 321 318 321
178 180 183 187 190 198 209 213 214 219 220 229 235 247 248 272 206 126 328 278 281 268 278 280 303 317 317 323 335 342 339 335 330 332 323 312 300 316 316 306 321 321 324
184 182 185 186 192 192 198 204 211 234 220 204 228 238 253 320 240 251 239 234 235 12 349 351 4 359 360 358 352 346 340 336 334 332 330 327 330 321 322 320 324 331 339
187 185 185 188 188 186 197 213 183 167 161 196 249 177 146 131 160 194 176 148 112 73 58 39 7 353 345 344 349 349 340 334 332 329 330 331 333 330 333 328 331 339 344
184 181 183 185 181 174 172 161 170 161 158 143 134 136 157 160 143 145 137 92 68 59 22 17 346 343 349 351 348 343 340 336 334 339 338 341 343 343 342 343 344 340 339
187 186 189 180 175 172 166 165 162 149 141 135 135 130 131 135 130 126 116 105 81 73 55 28 4 359 351 347 348 348 348 351 357 359 0 2 0 358 358 357 349 344 338
187 185 183 176 175 177 172 163 151 147 148 140 132 132 130 126 114 115 116 99 92 53 32 11 356 357 350 352 354 3 9 15 14 14 12 11 12 8 1 354 351 350 339
169 172 166 170 172 169 163 159 156 154 146 142 139 133 121 102 92 93 80 70 46 35 5 353 359 356 358 7 16 22 25 18 18 21 17 12 10 3 356 355 352 347 341
153 157 161 166 165 160 155 154 157 155 150 146 132 119 108 98 97 88 66 45 22 3 354 357 5 9 19 26 27 25 21 23 26 18 15 9 3 5 3 3 358 357 356
150 155 165 163 158 155 154 154 151 150 142 133 124 109 101 98 72 43 39 30 7 2 4 16 15 24 30 33 30 25 30 28 21 21 12 9 6 10 9 6 4 1 0
148 151 161 160 158 152 153 154 151 147 142 137 131 128 124 107 90 77 65 68 60 37 36 41 46 44 34 30 30 31 36 32 28 23 19 13 8 11 6 2 2 2 1
150 152 157 156 155 153 151 150 144 142 139 136 137 133 118 106 81 71 72 70 62 52 50 55 51 44 40 49 57 63 58 44 39 34 27 17 19 13 7 6 3 357 356
143 150 153 153 152 151 150 148 143 140 140 148 146 134 118 89 78 80 86 78 66 61 62 59 52 50 59 64 66 68 52 47 45 37 30 28 32 21 13 6 3 359 355
143 149 154 151 150 149 147 143 139 138 143 140 135 117 100 89 88 90 87 83 70 71 70 69 60 53 59 69 65 57 45 49 44 33 27 25 26 25 19 17 11 1 355
148 152 153 152 149 146 144 145 144 146 150 147 128 104 92 92 99 99 94 85 86 86 80 68 55 55 65 66 64 54 50 46 34 30 23 19 16 14 16 15 9 5 5
149 153 151 148 149 147 145 146 147 147 144 131 115 106 103 109 113 112 115 105 96 91 83 63 56 58 69 73 63 57 49 37 30 23 13 8 3 1 3 3 4 4 10
148 151 149 147 146 146 147 148 144 142 135 127 121 117 119 126 123 120 112 105 99 91 81 63 55 79 76 75 68 60 44 33 24 17 8 5 1 357 352 352 358 7 10
148 146 146 146 147 146 148 145 142 141 135 129 125 125 127 126 124 115 115 114 99 105 80 58 66 86 87 79 66 52 36 22 16 12 7 3 359 356 350 347 354 3 7
146 146 147 146 147 147 147 145 140 136 133 129 127 127 124 125 118 110 103 91 99 113 107 91 85 84 81 67 51 37 27 20 14 6 2 359 356 354 350 348 353 360 360
149 151 148 148 148 149 150 142 138 135 133 130 128 130 127 123 111 101 80 76 105 124 137 118 98 81 64 46 35 28 21 13 8 5 2 358 355 351 351 353 356 354 3
154 155 153 149 149 151 155 146 136 134 138 137 137 136 135 130 119 101 83 87 101 121 124 118 90 70 53 35 26 21 14 9 6 3 0 354 353 355 357 1 1 1 7
157 157 153 148 147 152 154 147 131 139 141 139 136 132 134 134 121 102 78 68 80 100 119 110 94 71 44 25 13 15 13 8 4 1 357 357 0 6 11 10 9 7 12
158 160 156 151 149 153 152 144 141 144 144 133 126 128 134 132 115 82 58 43 38 91 82 132 94 54 34 13 4 5 6 0 359 0 354 3 12 19 25 25 21 18 16
160 160 157 154 150 153 149 143 141 146 152 137 128 127 126 121 97 72 38 29 27 40 57 57 62 65 45 22 6 4 2 1 359 356 11 17 18 21 24 25 26 24 20
Wind_Speed_850mb
68 69 72 66 60 58 60 60 55 53 51 51 49 47 44 37 24 18 25 26 22 21 26 21 22 26 30 31 34 33 38 50 47 52 51 47 41 34 30 43 54 50 48
68 70 71 66 64 62 57 55 52 50 51 51 45 33 32 33 32 25 30 40 30 26 19 20 22 20 18 26 38 33 41 42 37 38 42 35 53 35 65 48 58 51 60
78 73 68 61 57 53 55 57 54 53 46 47 44 32 36 38 26 23 27 37 23 21 14 26 29 31 25 25 27 29 31 33 33 33 26 21 19 62 43 58 50 69 60
75 74 63 58 51 50 50 52 48 44 35 33 36 50 48 18 5 21 32 47 33 25 17 18 17 16 17 18 20 28 29 29 30 26 24 23 31 29 41 32 61 62 71
83 73 63 58 51 44 44 42 43 32 26 22 19 25 26 28 13 18 37 44 18 4 7 12 17 21 24 25 23 22 24 25 29 34 39 39 38 33 49 53 77 75 61
84 73 67 62 54 41 42 35 30 24 27 13 16 18 29 24 32 51 33 22 13 13 16 17 19 22 21 19 19 22 26 29 32 32 35 38 38 42 46 58 71 71 72
87 79 68 61 45 46 36 38 44 24 17 23 23 30 29 37 34 26 15 9 10 10 9 10 9 12 16 20 24 28 30 31 31 31 30 29 29 32 36 44 59 65 73
86 78 71 57 55 55 41 39 37 30 24 27 34 33 34 32 27 19 16 11 7 4 8 9 11 17 23 28 29 31 29 28 26 24 23 27 31 34 40 46 55 66 41
73 72 67 59 62 57 50 43 39 38 36 35 35 36 32 27 26 20 15 12 12 12 12 12 17 22 25 27 27 27 25 24 22 26 31 32 33 35 37 39 45 50 54
67 70 68 66 63 57 56 49 45 45 43 35 32 31 26 20 13 11 10 11 13 11 14 14 21 25 25 24 23 23 24 24 30 31 31 30 30 34 38 42 44 44 46
67 71 76 72 69 67 61 58 53 47 41 35 30 25 21 15 13 10 12 11 11 11 12 17 21 18 22 21 23 24 24 26 27 28 29 29 34 37 39 41 41 42 49
77 85 88 80 75 73 66 60 53 43 35 28 21 14 12 10 7 7 9 9 8 7 11 17 15 19 21 22 22 22 22 23 26 27 28 32 35 35 43 49 50 50 55
78 86 90 89 84 76 69 61 53 42 32 23 20 19 14 8 4 6 8 9 6 10 14 17 20 22 24 25 23 21 21 23 26 29 31 35 39 43 47 50 53 53 57
86 89 94 91 87 78 69 56 50 38 32 26 19 15 11 8 10 13 14 14 16 17 20 20 23 23 25 27 28 28 28 26 28 30 32 37 38 43 49 52 50 54 58
75 84 93 93 86 77 65 55 47 40 33 25 20 16 12 12 13 15 16 16 15 16 18 19 21 22 20 24 26 27 27 28 28 29 33 36 37 36 41 47 49 53 58
77 86 93 88 81 75 67 55 47 37 28 22 19 17 15 14 14 16 16 14 15 16 16 17 19 17 19 24 24 24 26 24 27 31 30 34 38 40 38 43 48 55 58
94 98 96 89 79 71 64 56 46 36 26 21 18 16 13 13 15 16 14 12 12 12 13 16 19 20 22 23 22 23 23 25 28 31 36 40 44 48 48 42 43 53 55
100 103 95 86 78 72 63 53 42 34 27 22 18 16 14 15 16 14 11 13 17 14 14 16 18 21 21 21 23 22 23 27 31 36 41 46 49 53 53 51 49 52 57
101 102 92 86 77 67 57 49 43 35 29 24 21 19 17 17 17 18 20 17 13 14 16 16 17 20 23 23 22 21 23 27 33 41 47 51 55 57 53 50 51 52 54
95 94 88 79 69 61 52 47 43 37 31 28 24 23 22 20 22 19 17 16 13 13 14 13 15 19 20 21 20 20 22 26 34 39 45 51 55 55 51 45 47 49 52
89 85 77 70 61 55 49 47 43 36 33 29 26 27 25 22 20 18 15 10 6 6 5 8 14 16 17 18 19 20 24 30 37 45 50 55 58 55 46 38 39 43 44
83 76 73 65 57 49 44 45 40 36 33 29 27 26 24 21 18 12 11 8 8 8 12 11 11 14 15 18 20 23 27 34 42 49 53 54 53 49 42 34 31 32 37
80 74 69 63 52 43 36 40 37 34 31 29 26 24 22 20 17 13 13 10 10 11 12 11 10 10 12 15 17 20 26 35 43 49 52 50 45 41 34 30 29 31 35
79 71 63 57 52 41 35 28 32 29 27 28 26 22 19 19 14 11 12 11 8 7 7 7 6 6 8 10 14 20 28 37 41 46 47 45 42 38 35 30 30 31 34
73 63 57 53 50 43 36 29 28 24 23 22 20 19 18 14 10 9 11 11 8 3 4 3 5 7 5 10 17 24 32 41 43 41 40 41 41 39 37 37 35 33 32
68 59 52 49 45 37 31 29 26 20 17 17 16 16 15 14 9 9 12 13 13 13 12 10 5 7 10 15 21 28 32 37 40 38 41 44 47 49 50 48 45 44 42
Wind_Direction_850mb
183 191 200 202 198 200 199 202 206 207 207 201 202 204 205 192 210 247 247 233 246 272 254 243 252 268 284 304 305 298 298 312 309 309 304 307 311 316 307 322 322 323 325
169 178 191 196 203 203 199 205 205 208 209 210 210 218 210 209 196 211 258 261 257 234 261 268 263 269 270 283 282 293 300 310 325 334 337 331 325 314 321 330 326 326 325
167 174 182 190 195 204 209 209 209 215 216 219 219 241 246 246 233 242 312 341 316 302 290 286 266 269 263 276 300 307 317 327 335 332 331 326 311 315 322 322 321 318 321
178 180 183 187 190 198 209 213 214 219 220 229 235 247 248 272 206 126 328 278 281 268 278 280 303 317 317 323 335 342 339 335 330 332 323 312 300 316 316 306 321 321 324
184 182 185 186 192 192 198 204 211 234 220 204 228 238 253 320 240 251 239 234 235 12 349 351 4 359 360 358 352 346 340 336 334 332 330 327 330 321 322 320 324 331 339
187 185 185 188 188 186 197 213 183 167 161 196 249 177 146 131 160 194 176 148 112 73 58 39 7 353 345 344 349 349 340 334 332 329 330 331 333 330 333 328 331 339 344
184 181 183 185 181 174 172 161 170 161 158 143 134 136 157 160 143 145 137 92 68 59 22 17 346 343 349 351 348 343 340 336 334 339 338 341 343 343 342 343 344 340 339
187 186 189 180 175 172 166 165 162 149 141 135 135 130 131 135 130 126 116 105 81 73 55 28 4 359 351 347 348 348 348 351 357 359 0 2 0 358 358 357 349 344 338
187 185 183 176 175 177 172 163 151 147 148 140 132 132 130 126 114 115 116 99 92 53 32 11 356 357 350 352 354 3 9 15 14 14 12 11 12 8 1 354 351 350 339
169 172 166 170 172 169 163 159 156 154 146 142 139 133 121 102 92 93 80 70 46 35 5 353 359 356 358 7 16 22 25 18 18 21 17 12 10 3 356 355 352 347 341
153 157 161 166 165 160 155 154 157 155 150 146 132 119 108 98 97 88 66 45 22 3 354 357 5 9 19 26 27 25 21 23 26 18 15 9 3 5 3 3 358 357 356
150 155 165 163 158 155 154 154 151 150 142 133 124 109 101 98 72 43 39 30 7 2 4 16 15 24 30 33 30 25 30 28 21 21 12 9 6 10 9 6 4 1 0
148 151 161 160 158 152 153 154 151 147 142 137 131 128 124 107 90 77 65 68 60 37 36 41 46 44 34 30 30 31 36 32 28 23 19 13 8 11 6 2 2 2 1
150 152 157 156 155 153 151 150 144 142 139 136 137 133 118 106 81 71 72 70 62 52 50 55 51 44 40 49 57 63 58 44 39 34 27 17 19 13 7 6 3 357 356
143 150 153 153 152 151 150 148 143 140 140 148 146 134 118 89 78 80 86 78 66 61 62 59 52 50 59 64 66 68 52 47 45 37 30 28 32 21 13 6 3 359 355
143 149 154 151 150 149 147 143 139 138 143 140 135 117 100 89 88 90 87 83 70 71 70 69 60 53 59 69 65 57 45 49 44 33 27 25 26 25 19 17 11 1 355
148 152 153 152 149 146 144 145 144 146 150 147 128 104 92 92 99 99 94 85 86 86 80 68 55 55 65 66 64 54 50 46 34 30 23 19 16 14 16 15 9 5 5
149 153 151 148 149 147 145 146 147 147 144 131 115 106 103 109 113 112 115 105 96 91 83 63 56 58 69 73 63 57 49 37 30 23 13 8 3 1 3 3 4 4 10
148 151 149 147 146 146 147 148 144 142 135 127 121 117 119 126 123 120 112 105 99 91 81 63 55 79 76 75 68 60 44 33 24 17 8 5 1 357 352 352 358 7 10
148 146 146 146 147 146 148 145 142 141 135 129 125 125 127 126 124 115 115 114 99 105 80 58 66 86 87 79 66 52 36 22 16 12 7 3 359 356 350 347 354 3 7
146 146 147 146 147 147 147 145 140 136 133 129 127 127 124 125 118 110 103 91 99 113 107 91 85 84 81 67 51 37 27 20 14 6 2 359 356 354 350 348 353 360 360
149 151 148 148 148 149 150 142 138 135 133 130 128 130 127 123 111 101 80 76 105 124 137 118 98 81 64 46 35 28 21 13 8 5 2 358 355 351 351 353 356 354 3
154 155 153 149 149 151 155 146 136 134 138 137 137 136 135 130 119 101 83 87 101 121 124 118 90 70 53 35 26 21 14 9 6 3 0 354 353 355 357 1 1 1 7
157 157 153 148 147 152 154 147 131 139 141 139 136 132 134 134 121 102 78 68 80 100 119 110 94 71 44 25 13 15 13 8 4 1 357 357 0 6 11 10 9 7 12
158 160 156 151 149 153 152 144 141 144 144 133 126 128 134 132 115 82 58 43 38 91 82 132 94 54 34 13 4 5 6 0 359 0 354 3 12 19 25 25 21 18 16
160 160 157 154 150 153 149 143 141 146 152 137 128 127 126 121 97 72 38 29 27 40 57 57 62 65 45 22 6 4 2 1 359 356 11 17 18 21 24 25 26 24 20